owner,sensor,date,latitude,longitude,air_pressure(mBar),qcFlag 
TABS,ioos:station:wmo:42044:1,2017-10-01T00:00:00Z,26.1914,-97.0507,1013.85,11111222 
TABS,ioos:station:wmo:42044:1,2017-10-01T00:30:00Z,26.1914,-97.0507,1013.78,11111222 
TABS,ioos:station:wmo:42044:1,2017-10-01T01:00:00Z,26.1914,-97.0507,1014.02,11111222 
TABS,ioos:station:wmo:42044:1,2017-10-01T01:30:00Z,26.1914,-97.0507,1013.96,11111222 
TABS,ioos:station:wmo:42044:1,2017-10-01T02:00:00Z,26.1914,-97.0507,1014.26,11111222 
TABS,ioos:station:wmo:42044:1,2017-10-01T02:30:00Z,26.1914,-97.0507,1014.86,11111222 
TABS,ioos:station:wmo:42044:1,2017-10-01T03:00:00Z,26.1914,-97.0507,1014.72,11111222 
TABS,ioos:station:wmo:42044:1,2017-10-01T03:30:00Z,26.1914,-97.0507,1014.62,11111222 
TABS,ioos:station:wmo:42044:1,2017-10-01T04:00:00Z,26.1914,-97.0507,1014.59,11111222 
TABS,ioos:station:wmo:42044:1,2017-10-01T04:30:00Z,26.1914,-97.0507,1014.5,11111222 
TABS,ioos:station:wmo:42044:1,2017-10-01T05:00:00Z,26.1914,-97.0507,1014.08,11111222 
TABS,ioos:station:wmo:42044:1,2017-10-01T05:30:00Z,26.1914,-97.0507,1014.05,11111222 
TABS,ioos:station:wmo:42044:1,2017-10-01T06:00:00Z,26.1914,-97.0507,1013.51,11111222 
TABS,ioos:station:wmo:42044:1,2017-10-01T06:30:00Z,26.1914,-97.0507,1013.44,11111222 
TABS,ioos:station:wmo:42044:1,2017-10-01T07:00:00Z,26.1914,-97.0507,1013.42,11111222 
TABS,ioos:station:wmo:42044:1,2017-10-01T07:30:00Z,26.1914,-97.0507,1013.25,11111222 
TABS,ioos:station:wmo:42044:1,2017-10-01T08:00:00Z,26.1914,-97.0507,1012.89,11111222 
TABS,ioos:station:wmo:42044:1,2017-10-01T08:30:00Z,26.1914,-97.0507,1012.81,11111222 
TABS,ioos:station:wmo:42044:1,2017-10-01T09:00:00Z,26.1914,-97.0507,1012.33,11111222 
TABS,ioos:station:wmo:42044:1,2017-10-01T09:30:00Z,26.1914,-97.0507,1012.33,11111222 
TABS,ioos:station:wmo:42044:1,2017-10-01T10:00:00Z,26.1914,-97.0507,1012.36,11111222 
TABS,ioos:station:wmo:42044:1,2017-10-01T10:30:00Z,26.1914,-97.0507,1012.51,11111222 
TABS,ioos:station:wmo:42044:1,2017-10-01T11:00:00Z,26.1914,-97.0507,1012.26,11111222 
TABS,ioos:station:wmo:42044:1,2017-10-01T11:30:00Z,26.1914,-97.0507,1012.4,11111222 
TABS,ioos:station:wmo:42044:1,2017-10-01T12:00:00Z,26.1914,-97.0507,1012.65,11111222 
TABS,ioos:station:wmo:42044:1,2017-10-01T12:30:00Z,26.1914,-97.0507,1012.69,11111222 
TABS,ioos:station:wmo:42044:1,2017-10-01T13:00:00Z,26.1914,-97.0507,1012.95,11111222 
TABS,ioos:station:wmo:42044:1,2017-10-01T13:30:00Z,26.1914,-97.0507,1013.14,11111222 
TABS,ioos:station:wmo:42044:1,2017-10-01T14:00:00Z,26.1914,-97.0507,1013.48,11111222 
TABS,ioos:station:wmo:42044:1,2017-10-01T14:30:00Z,26.1914,-97.0507,1013.4,11111222 
TABS,ioos:station:wmo:42044:1,2017-10-01T15:00:00Z,26.1914,-97.0507,1013.67,11111222 
TABS,ioos:station:wmo:42044:1,2017-10-01T15:30:00Z,26.1914,-97.0507,1013.87,11111222 
TABS,ioos:station:wmo:42044:1,2017-10-01T16:00:00Z,26.1914,-97.0507,1013.81,11111222 
TABS,ioos:station:wmo:42044:1,2017-10-01T16:30:00Z,26.1914,-97.0507,1013.92,11111222 
TABS,ioos:station:wmo:42044:1,2017-10-01T17:00:00Z,26.1914,-97.0507,1013.91,11111222 
TABS,ioos:station:wmo:42044:1,2017-10-01T17:30:00Z,26.1914,-97.0507,1013.66,11111222 
TABS,ioos:station:wmo:42044:1,2017-10-01T18:00:00Z,26.1914,-97.0507,1013.16,11111222 
TABS,ioos:station:wmo:42044:1,2017-10-01T18:30:00Z,26.1914,-97.0507,1012.68,11111222 
TABS,ioos:station:wmo:42044:1,2017-10-01T19:00:00Z,26.1914,-97.0507,1012.12,11111222 
TABS,ioos:station:wmo:42044:1,2017-10-01T19:30:00Z,26.1914,-97.0507,1011.64,11111222 
TABS,ioos:station:wmo:42044:1,2017-10-01T20:00:00Z,26.1914,-97.0507,1011.45,11111222 
TABS,ioos:station:wmo:42044:1,2017-10-01T20:30:00Z,26.1914,-97.0507,1011.22,11111222 
TABS,ioos:station:wmo:42044:1,2017-10-01T21:00:00Z,26.1914,-97.0507,1011.11,11111222 
TABS,ioos:station:wmo:42044:1,2017-10-01T21:30:00Z,26.1914,-97.0507,1011.06,11111222 
TABS,ioos:station:wmo:42044:1,2017-10-01T22:00:00Z,26.1914,-97.0507,1010.88,11111222 
TABS,ioos:station:wmo:42044:1,2017-10-01T22:30:00Z,26.1914,-97.0507,1010.49,11111222 
TABS,ioos:station:wmo:42044:1,2017-10-01T23:00:00Z,26.1914,-97.0507,1010.7,11111222 
TABS,ioos:station:wmo:42044:1,2017-10-01T23:30:00Z,26.1914,-97.0507,1010.77,11111222 
TABS,ioos:station:wmo:42044:1,2017-10-02T00:00:00Z,26.1914,-97.0507,1010.88,11111222 
TABS,ioos:station:wmo:42044:1,2017-10-02T00:30:00Z,26.1914,-97.0507,1010.97,11111222 
TABS,ioos:station:wmo:42044:1,2017-10-02T01:00:00Z,26.1914,-97.0507,1010.81,11111222 
TABS,ioos:station:wmo:42044:1,2017-10-02T01:30:00Z,26.1914,-97.0507,1010.86,11111222 
TABS,ioos:station:wmo:42044:1,2017-10-02T02:00:00Z,26.1914,-97.0507,1011.02,11111222 
TABS,ioos:station:wmo:42044:1,2017-10-02T02:30:00Z,26.1914,-97.0507,1011.29,11111222 
TABS,ioos:station:wmo:42044:1,2017-10-02T03:00:00Z,26.1914,-97.0507,1011.51,11111222 
TABS,ioos:station:wmo:42044:1,2017-10-02T03:30:00Z,26.1914,-97.0507,1011.65,11111222 
TABS,ioos:station:wmo:42044:1,2017-10-02T04:00:00Z,26.1914,-97.0507,1011.7,11111222 
TABS,ioos:station:wmo:42044:1,2017-10-02T04:30:00Z,26.1914,-97.0507,1011.55,11111222 
TABS,ioos:station:wmo:42044:1,2017-10-02T05:00:00Z,26.1914,-97.0507,1011.61,11111222 
TABS,ioos:station:wmo:42044:1,2017-10-02T05:30:00Z,26.1914,-97.0507,1011.55,11111222 
TABS,ioos:station:wmo:42044:1,2017-10-02T06:00:00Z,26.1914,-97.0507,1011.49,11111222 
TABS,ioos:station:wmo:42044:1,2017-10-02T06:30:00Z,26.1914,-97.0507,1011.25,11111222 
TABS,ioos:station:wmo:42044:1,2017-10-02T07:00:00Z,26.1914,-97.0507,1010.99,11111222 
TABS,ioos:station:wmo:42044:1,2017-10-02T07:30:00Z,26.1914,-97.0507,1010.61,11111222 
TABS,ioos:station:wmo:42044:1,2017-10-02T08:00:00Z,26.1914,-97.0507,1010.41,11111222 
TABS,ioos:station:wmo:42044:1,2017-10-02T08:30:00Z,26.1914,-97.0507,1010.25,11111222 
TABS,ioos:station:wmo:42044:1,2017-10-02T09:00:00Z,26.1914,-97.0507,1010.22,11111222 
TABS,ioos:station:wmo:42044:1,2017-10-02T09:30:00Z,26.1914,-97.0507,1010.02,11111222 
TABS,ioos:station:wmo:42044:1,2017-10-02T10:00:00Z,26.1914,-97.0507,1010.0,11111222 
TABS,ioos:station:wmo:42044:1,2017-10-02T10:30:00Z,26.1914,-97.0507,1010.23,11111222 
TABS,ioos:station:wmo:42044:1,2017-10-02T11:00:00Z,26.1914,-97.0507,1010.42,11111222 
TABS,ioos:station:wmo:42044:1,2017-10-02T11:30:00Z,26.1914,-97.0507,1010.66,11111222 
TABS,ioos:station:wmo:42044:1,2017-10-02T12:00:00Z,26.1914,-97.0507,1010.85,11111222 
TABS,ioos:station:wmo:42044:1,2017-10-02T12:30:00Z,26.1914,-97.0507,1011.05,11111222 
TABS,ioos:station:wmo:42044:1,2017-10-02T13:00:00Z,26.1914,-97.0507,1011.45,11111222 
TABS,ioos:station:wmo:42044:1,2017-10-02T13:30:00Z,26.1914,-97.0507,1011.69,11111222 
TABS,ioos:station:wmo:42044:1,2017-10-02T14:00:00Z,26.1914,-97.0507,1011.93,11111222 
TABS,ioos:station:wmo:42044:1,2017-10-02T14:30:00Z,26.1914,-97.0507,1012.21,11111222 
TABS,ioos:station:wmo:42044:1,2017-10-02T15:00:00Z,26.1914,-97.0507,1012.2,11111222 
TABS,ioos:station:wmo:42044:1,2017-10-02T15:30:00Z,26.1914,-97.0507,1012.73,11111222 
TABS,ioos:station:wmo:42044:1,2017-10-02T16:00:00Z,26.1914,-97.0507,1012.63,11111222 
TABS,ioos:station:wmo:42044:1,2017-10-02T16:30:00Z,26.1914,-97.0507,1012.45,11111222 
TABS,ioos:station:wmo:42044:1,2017-10-02T17:00:00Z,26.1914,-97.0507,1012.66,11111222 
TABS,ioos:station:wmo:42044:1,2017-10-02T17:30:00Z,26.1914,-97.0507,1012.49,11111222 
TABS,ioos:station:wmo:42044:1,2017-10-02T18:00:00Z,26.1914,-97.0507,1012.18,11111222 
TABS,ioos:station:wmo:42044:1,2017-10-02T18:30:00Z,26.1914,-97.0507,1011.85,11111222 
TABS,ioos:station:wmo:42044:1,2017-10-02T19:00:00Z,26.1914,-97.0507,1011.66,11111222 
TABS,ioos:station:wmo:42044:1,2017-10-02T19:30:00Z,26.1914,-97.0507,1011.18,11111222 
TABS,ioos:station:wmo:42044:1,2017-10-02T20:00:00Z,26.1914,-97.0507,1010.64,11111222 
TABS,ioos:station:wmo:42044:1,2017-10-02T20:30:00Z,26.1914,-97.0507,1010.65,11111222 
TABS,ioos:station:wmo:42044:1,2017-10-02T21:00:00Z,26.1914,-97.0507,1010.62,11111222 
TABS,ioos:station:wmo:42044:1,2017-10-02T21:30:00Z,26.1914,-97.0507,1010.61,11111222 
TABS,ioos:station:wmo:42044:1,2017-10-02T22:00:00Z,26.1914,-97.0507,1010.76,11111222 
TABS,ioos:station:wmo:42044:1,2017-10-02T22:30:00Z,26.1914,-97.0507,1010.66,11111222 
TABS,ioos:station:wmo:42044:1,2017-10-02T23:00:00Z,26.1914,-97.0507,1010.77,11111222 
TABS,ioos:station:wmo:42044:1,2017-10-02T23:30:00Z,26.1914,-97.0507,1010.88,11111222 
TABS,ioos:station:wmo:42044:1,2017-10-03T00:00:00Z,26.1914,-97.0507,1011.07,11111222 
TABS,ioos:station:wmo:42044:1,2017-10-03T00:30:00Z,26.1914,-97.0507,1011.03,11111222 
TABS,ioos:station:wmo:42044:1,2017-10-03T01:00:00Z,26.1914,-97.0507,1011.21,11111222 
TABS,ioos:station:wmo:42044:1,2017-10-03T01:30:00Z,26.1914,-97.0507,1011.63,11111222 
TABS,ioos:station:wmo:42044:1,2017-10-03T02:00:00Z,26.1914,-97.0507,1011.87,11111222 
TABS,ioos:station:wmo:42044:1,2017-10-03T02:30:00Z,26.1914,-97.0507,1012.23,11111222 
TABS,ioos:station:wmo:42044:1,2017-10-03T03:00:00Z,26.1914,-97.0507,1012.59,11111222 
TABS,ioos:station:wmo:42044:1,2017-10-03T03:30:00Z,26.1914,-97.0507,1012.63,11111222 
TABS,ioos:station:wmo:42044:1,2017-10-03T04:00:00Z,26.1914,-97.0507,1012.77,11111222 
TABS,ioos:station:wmo:42044:1,2017-10-03T04:30:00Z,26.1914,-97.0507,1012.91,11111222 
TABS,ioos:station:wmo:42044:1,2017-10-03T05:00:00Z,26.1914,-97.0507,1013.09,11111222 
TABS,ioos:station:wmo:42044:1,2017-10-03T05:30:00Z,26.1914,-97.0507,1013.0,11111222 
TABS,ioos:station:wmo:42044:1,2017-10-03T06:00:00Z,26.1914,-97.0507,1013.0,11111222 
TABS,ioos:station:wmo:42044:1,2017-10-03T06:30:00Z,26.1914,-97.0507,1012.84,11111222 
TABS,ioos:station:wmo:42044:1,2017-10-03T07:00:00Z,26.1914,-97.0507,1012.43,11111222 
TABS,ioos:station:wmo:42044:1,2017-10-03T07:30:00Z,26.1914,-97.0507,1012.39,11111222 
TABS,ioos:station:wmo:42044:1,2017-10-03T08:00:00Z,26.1914,-97.0507,1011.88,11111222 
TABS,ioos:station:wmo:42044:1,2017-10-03T08:30:00Z,26.1914,-97.0507,1011.77,11111222 
TABS,ioos:station:wmo:42044:1,2017-10-03T09:00:00Z,26.1914,-97.0507,1011.66,11111222 
TABS,ioos:station:wmo:42044:1,2017-10-03T09:30:00Z,26.1914,-97.0507,1011.64,11111222 
TABS,ioos:station:wmo:42044:1,2017-10-03T10:00:00Z,26.1914,-97.0507,1011.96,11111222 
TABS,ioos:station:wmo:42044:1,2017-10-03T10:30:00Z,26.1914,-97.0507,1012.04,11111222 
TABS,ioos:station:wmo:42044:1,2017-10-03T11:00:00Z,26.1914,-97.0507,1012.31,11111222 
TABS,ioos:station:wmo:42044:1,2017-10-03T11:30:00Z,26.1914,-97.0507,1012.51,11111222 
TABS,ioos:station:wmo:42044:1,2017-10-03T12:00:00Z,26.1914,-97.0507,1013.51,11111222 
TABS,ioos:station:wmo:42044:1,2017-10-03T12:30:00Z,26.1914,-97.0507,1013.11,11111222 
TABS,ioos:station:wmo:42044:1,2017-10-03T13:00:00Z,26.1914,-97.0507,1013.45,11111222 
TABS,ioos:station:wmo:42044:1,2017-10-03T13:30:00Z,26.1914,-97.0507,1013.92,11111222 
TABS,ioos:station:wmo:42044:1,2017-10-03T14:00:00Z,26.1914,-97.0507,1014.13,11111222 
TABS,ioos:station:wmo:42044:1,2017-10-03T14:30:00Z,26.1914,-97.0507,1014.74,11111222 
TABS,ioos:station:wmo:42044:1,2017-10-03T15:00:00Z,26.1914,-97.0507,1014.61,11111222 
TABS,ioos:station:wmo:42044:1,2017-10-03T15:30:00Z,26.1914,-97.0507,1015.08,11111222 
TABS,ioos:station:wmo:42044:1,2017-10-03T16:00:00Z,26.1914,-97.0507,1015.31,11111222 
TABS,ioos:station:wmo:42044:1,2017-10-03T16:30:00Z,26.1914,-97.0507,1014.99,11111222 
TABS,ioos:station:wmo:42044:1,2017-10-03T17:00:00Z,26.1914,-97.0507,1015.16,11111222 
TABS,ioos:station:wmo:42044:1,2017-10-03T17:30:00Z,26.1914,-97.0507,1014.52,11111222 
TABS,ioos:station:wmo:42044:1,2017-10-03T18:00:00Z,26.1914,-97.0507,1014.55,11111222 
TABS,ioos:station:wmo:42044:1,2017-10-03T18:30:00Z,26.1914,-97.0507,1014.47,11111222 
TABS,ioos:station:wmo:42044:1,2017-10-03T19:00:00Z,26.1914,-97.0507,1014.31,11111222 
TABS,ioos:station:wmo:42044:1,2017-10-03T19:30:00Z,26.1914,-97.0507,1013.79,11111222 
TABS,ioos:station:wmo:42044:1,2017-10-03T20:00:00Z,26.1914,-97.0507,1014.48,11111222 
TABS,ioos:station:wmo:42044:1,2017-10-03T20:30:00Z,26.1914,-97.0507,1013.58,11111222 
TABS,ioos:station:wmo:42044:1,2017-10-03T21:00:00Z,26.1914,-97.0507,1014.05,11111222 
TABS,ioos:station:wmo:42044:1,2017-10-03T21:30:00Z,26.1914,-97.0507,1013.78,11111222 
TABS,ioos:station:wmo:42044:1,2017-10-03T22:00:00Z,26.1914,-97.0507,1014.0,11111222 
TABS,ioos:station:wmo:42044:1,2017-10-03T22:30:00Z,26.1914,-97.0507,1014.28,11111222 
TABS,ioos:station:wmo:42044:1,2017-10-03T23:00:00Z,26.1914,-97.0507,1014.35,11111222 
TABS,ioos:station:wmo:42044:1,2017-10-03T23:30:00Z,26.1914,-97.0507,1014.52,11111222 
TABS,ioos:station:wmo:42044:1,2017-10-04T00:00:00Z,26.1914,-97.0507,1014.67,11111222 
TABS,ioos:station:wmo:42044:1,2017-10-04T00:30:00Z,26.1914,-97.0507,1016.08,11111222 
TABS,ioos:station:wmo:42044:1,2017-10-04T01:00:00Z,26.1914,-97.0507,1015.08,11111222 
TABS,ioos:station:wmo:42044:1,2017-10-04T01:30:00Z,26.1914,-97.0507,1015.55,11111222 
TABS,ioos:station:wmo:42044:1,2017-10-04T02:00:00Z,26.1914,-97.0507,1016.17,11111222 
TABS,ioos:station:wmo:42044:1,2017-10-04T02:30:00Z,26.1914,-97.0507,1016.73,11111222 
TABS,ioos:station:wmo:42044:1,2017-10-04T03:00:00Z,26.1914,-97.0507,1016.49,11111222 
TABS,ioos:station:wmo:42044:1,2017-10-04T03:30:00Z,26.1914,-97.0507,1016.49,11111222 
TABS,ioos:station:wmo:42044:1,2017-10-04T04:00:00Z,26.1914,-97.0507,1016.48,11111222 
TABS,ioos:station:wmo:42044:1,2017-10-04T04:30:00Z,26.1914,-97.0507,1016.54,11111222 
TABS,ioos:station:wmo:42044:1,2017-10-04T05:00:00Z,26.1914,-97.0507,1016.38,11111222 
TABS,ioos:station:wmo:42044:1,2017-10-04T05:30:00Z,26.1914,-97.0507,1016.34,11111222 
TABS,ioos:station:wmo:42044:1,2017-10-04T06:00:00Z,26.1914,-97.0507,1016.31,11111222 
TABS,ioos:station:wmo:42044:1,2017-10-04T06:30:00Z,26.1914,-97.0507,1016.64,11111222 
TABS,ioos:station:wmo:42044:1,2017-10-04T07:00:00Z,26.1914,-97.0507,1015.98,11111222 
TABS,ioos:station:wmo:42044:1,2017-10-04T07:30:00Z,26.1914,-97.0507,1016.26,11111222 
TABS,ioos:station:wmo:42044:1,2017-10-04T08:00:00Z,26.1914,-97.0507,1015.96,11111222 
TABS,ioos:station:wmo:42044:1,2017-10-04T08:30:00Z,26.1914,-97.0507,1015.69,11111222 
TABS,ioos:station:wmo:42044:1,2017-10-04T09:00:00Z,26.1914,-97.0507,1015.74,11111222 
TABS,ioos:station:wmo:42044:1,2017-10-04T09:30:00Z,26.1914,-97.0507,1015.7,11111222 
TABS,ioos:station:wmo:42044:1,2017-10-04T10:00:00Z,26.1914,-97.0507,1015.81,11111222 
TABS,ioos:station:wmo:42044:1,2017-10-04T10:30:00Z,26.1914,-97.0507,1015.94,11111222 
TABS,ioos:station:wmo:42044:1,2017-10-04T11:00:00Z,26.1914,-97.0507,1016.73,11111222 
TABS,ioos:station:wmo:42044:1,2017-10-04T11:30:00Z,26.1914,-97.0507,1016.77,11111222 
TABS,ioos:station:wmo:42044:1,2017-10-04T12:00:00Z,26.1914,-97.0507,1016.9,11111222 
TABS,ioos:station:wmo:42044:1,2017-10-04T12:30:00Z,26.1914,-97.0507,1017.32,11111222 
TABS,ioos:station:wmo:42044:1,2017-10-04T13:00:00Z,26.1914,-97.0507,1017.52,11111222 
TABS,ioos:station:wmo:42044:1,2017-10-04T13:30:00Z,26.1914,-97.0507,1017.75,11111222 
TABS,ioos:station:wmo:42044:1,2017-10-04T14:00:00Z,26.1914,-97.0507,1017.76,11111222 
TABS,ioos:station:wmo:42044:1,2017-10-04T14:30:00Z,26.1914,-97.0507,1018.26,11111222 
TABS,ioos:station:wmo:42044:1,2017-10-04T15:00:00Z,26.1914,-97.0507,1018.24,11111222 
TABS,ioos:station:wmo:42044:1,2017-10-04T15:30:00Z,26.1914,-97.0507,1018.56,11111222 
TABS,ioos:station:wmo:42044:1,2017-10-04T16:00:00Z,26.1914,-97.0507,1018.73,11111222 
TABS,ioos:station:wmo:42044:1,2017-10-04T16:30:00Z,26.1914,-97.0507,1018.49,11111222 
TABS,ioos:station:wmo:42044:1,2017-10-04T17:00:00Z,26.1914,-97.0507,1018.28,11111222 
TABS,ioos:station:wmo:42044:1,2017-10-04T17:30:00Z,26.1914,-97.0507,1018.21,11111222 
TABS,ioos:station:wmo:42044:1,2017-10-04T18:00:00Z,26.1914,-97.0507,1017.92,11111222 
TABS,ioos:station:wmo:42044:1,2017-10-04T18:30:00Z,26.1914,-97.0507,1017.38,11111222 
TABS,ioos:station:wmo:42044:1,2017-10-04T19:00:00Z,26.1914,-97.0507,1016.77,11111222 
TABS,ioos:station:wmo:42044:1,2017-10-04T19:30:00Z,26.1914,-97.0507,1016.27,11111222 
TABS,ioos:station:wmo:42044:1,2017-10-04T20:00:00Z,26.1914,-97.0507,1016.18,11111222 
TABS,ioos:station:wmo:42044:1,2017-10-04T20:30:00Z,26.1914,-97.0507,1015.75,11111222 
TABS,ioos:station:wmo:42044:1,2017-10-04T21:00:00Z,26.1914,-97.0507,1015.73,11111222 
TABS,ioos:station:wmo:42044:1,2017-10-04T21:30:00Z,26.1914,-97.0507,1015.79,11111222 
TABS,ioos:station:wmo:42044:1,2017-10-04T22:00:00Z,26.1914,-97.0507,1015.56,11111222 
TABS,ioos:station:wmo:42044:1,2017-10-04T22:30:00Z,26.1914,-97.0507,1015.57,11111222 
TABS,ioos:station:wmo:42044:1,2017-10-04T23:00:00Z,26.1914,-97.0507,1015.89,11111222 
TABS,ioos:station:wmo:42044:1,2017-10-04T23:30:00Z,26.1914,-97.0507,1015.7,11111222 
TABS,ioos:station:wmo:42044:1,2017-10-05T00:00:00Z,26.1914,-97.0507,1015.99,11111222 
TABS,ioos:station:wmo:42044:1,2017-10-05T00:30:00Z,26.1914,-97.0507,1015.76,11111222 
TABS,ioos:station:wmo:42044:1,2017-10-05T01:00:00Z,26.1914,-97.0507,1015.98,11111222 
TABS,ioos:station:wmo:42044:1,2017-10-05T01:30:00Z,26.1914,-97.0507,1016.06,11111222 
TABS,ioos:station:wmo:42044:1,2017-10-05T02:00:00Z,26.1914,-97.0507,1016.35,11111222 
TABS,ioos:station:wmo:42044:1,2017-10-05T02:30:00Z,26.1914,-97.0507,1016.53,11111222 
TABS,ioos:station:wmo:42044:1,2017-10-05T03:00:00Z,26.1914,-97.0507,1016.6,11111222 
TABS,ioos:station:wmo:42044:1,2017-10-05T03:30:00Z,26.1914,-97.0507,1016.98,11111222 
TABS,ioos:station:wmo:42044:1,2017-10-05T04:00:00Z,26.1914,-97.0507,1017.0,11111222 
TABS,ioos:station:wmo:42044:1,2017-10-05T04:30:00Z,26.1914,-97.0507,1016.63,11111222 
TABS,ioos:station:wmo:42044:1,2017-10-05T05:00:00Z,26.1914,-97.0507,1016.28,11111222 
TABS,ioos:station:wmo:42044:1,2017-10-05T05:30:00Z,26.1914,-97.0507,1016.23,11111222 
TABS,ioos:station:wmo:42044:1,2017-10-05T06:00:00Z,26.1914,-97.0507,1015.97,11111222 
TABS,ioos:station:wmo:42044:1,2017-10-05T06:30:00Z,26.1914,-97.0507,1015.94,11111222 
TABS,ioos:station:wmo:42044:1,2017-10-05T07:00:00Z,26.1914,-97.0507,1015.54,11111222 
TABS,ioos:station:wmo:42044:1,2017-10-05T07:30:00Z,26.1914,-97.0507,1015.82,11111222 
TABS,ioos:station:wmo:42044:1,2017-10-05T08:00:00Z,26.1914,-97.0507,1015.36,11111222 
TABS,ioos:station:wmo:42044:1,2017-10-05T08:30:00Z,26.1914,-97.0507,1015.49,11111222 
TABS,ioos:station:wmo:42044:1,2017-10-05T09:00:00Z,26.1914,-97.0507,1015.17,11111222 
TABS,ioos:station:wmo:42044:1,2017-10-05T09:30:00Z,26.1914,-97.0507,1015.22,11111222 
TABS,ioos:station:wmo:42044:1,2017-10-05T10:00:00Z,26.1914,-97.0507,1015.24,11111222 
TABS,ioos:station:wmo:42044:1,2017-10-05T10:30:00Z,26.1914,-97.0507,1015.17,11111222 
TABS,ioos:station:wmo:42044:1,2017-10-05T11:00:00Z,26.1914,-97.0507,1015.22,11111222 
TABS,ioos:station:wmo:42044:1,2017-10-05T11:30:00Z,26.1914,-97.0507,1015.42,11111222 
TABS,ioos:station:wmo:42044:1,2017-10-05T12:00:00Z,26.1914,-97.0507,1016.32,11111222 
TABS,ioos:station:wmo:42044:1,2017-10-05T12:30:00Z,26.1914,-97.0507,1015.84,11111222 
TABS,ioos:station:wmo:42044:1,2017-10-05T13:00:00Z,26.1914,-97.0507,1015.77,11111222 
TABS,ioos:station:wmo:42044:1,2017-10-05T13:30:00Z,26.1914,-97.0507,1015.8,11111222 
TABS,ioos:station:wmo:42044:1,2017-10-05T14:00:00Z,26.1914,-97.0507,1016.05,11111222 
TABS,ioos:station:wmo:42044:1,2017-10-05T14:30:00Z,26.1914,-97.0507,1016.35,11111222 
TABS,ioos:station:wmo:42044:1,2017-10-05T15:00:00Z,26.1914,-97.0507,1016.31,11111222 
TABS,ioos:station:wmo:42044:1,2017-10-05T15:30:00Z,26.1914,-97.0507,1016.48,11111222 
TABS,ioos:station:wmo:42044:1,2017-10-05T16:00:00Z,26.1914,-97.0507,1016.51,11111222 
TABS,ioos:station:wmo:42044:1,2017-10-05T16:30:00Z,26.1914,-97.0507,1016.63,11111222 
TABS,ioos:station:wmo:42044:1,2017-10-05T17:00:00Z,26.1914,-97.0507,1016.51,11111222 
TABS,ioos:station:wmo:42044:1,2017-10-05T17:30:00Z,26.1914,-97.0507,1016.36,11111222 
TABS,ioos:station:wmo:42044:1,2017-10-05T18:00:00Z,26.1914,-97.0507,1015.83,11111222 
TABS,ioos:station:wmo:42044:1,2017-10-05T18:30:00Z,26.1914,-97.0507,1015.3,11111222 
TABS,ioos:station:wmo:42044:1,2017-10-05T19:00:00Z,26.1914,-97.0507,1015.18,11111222 
TABS,ioos:station:wmo:42044:1,2017-10-05T19:30:00Z,26.1914,-97.0507,1014.45,11111222 
TABS,ioos:station:wmo:42044:1,2017-10-05T20:00:00Z,26.1914,-97.0507,1014.1,11111222 
TABS,ioos:station:wmo:42044:1,2017-10-05T20:30:00Z,26.1914,-97.0507,1013.84,11111222 
TABS,ioos:station:wmo:42044:1,2017-10-05T21:00:00Z,26.1914,-97.0507,1013.54,11111222 
TABS,ioos:station:wmo:42044:1,2017-10-05T21:30:00Z,26.1914,-97.0507,1013.35,11111222 
TABS,ioos:station:wmo:42044:1,2017-10-05T22:00:00Z,26.1914,-97.0507,1013.45,11111222 
TABS,ioos:station:wmo:42044:1,2017-10-05T22:30:00Z,26.1914,-97.0507,1013.35,11111222 
TABS,ioos:station:wmo:42044:1,2017-10-05T23:00:00Z,26.1914,-97.0507,1013.49,11111222 
TABS,ioos:station:wmo:42044:1,2017-10-05T23:30:00Z,26.1914,-97.0507,1013.2,11111222 
TABS,ioos:station:wmo:42044:1,2017-10-06T00:00:00Z,26.1914,-97.0507,1013.72,11111222 
TABS,ioos:station:wmo:42044:1,2017-10-06T00:30:00Z,26.1914,-97.0507,1013.88,11111222 
TABS,ioos:station:wmo:42044:1,2017-10-06T01:00:00Z,26.1914,-97.0507,1013.75,11111222 
TABS,ioos:station:wmo:42044:1,2017-10-06T01:30:00Z,26.1914,-97.0507,1013.89,11111222 
TABS,ioos:station:wmo:42044:1,2017-10-06T02:00:00Z,26.1914,-97.0507,1014.19,11111222 
TABS,ioos:station:wmo:42044:1,2017-10-06T02:30:00Z,26.1914,-97.0507,1014.32,11111222 
TABS,ioos:station:wmo:42044:1,2017-10-06T03:00:00Z,26.1914,-97.0507,1014.38,11111222 
TABS,ioos:station:wmo:42044:1,2017-10-06T03:30:00Z,26.1914,-97.0507,1014.27,11111222 
TABS,ioos:station:wmo:42044:1,2017-10-06T04:00:00Z,26.1914,-97.0507,1014.42,11111222 
TABS,ioos:station:wmo:42044:1,2017-10-06T04:30:00Z,26.1914,-97.0507,1014.23,11111222 
TABS,ioos:station:wmo:42044:1,2017-10-06T05:00:00Z,26.1914,-97.0507,1014.35,11111222 
TABS,ioos:station:wmo:42044:1,2017-10-06T05:30:00Z,26.1914,-97.0507,1014.22,11111222 
TABS,ioos:station:wmo:42044:1,2017-10-06T06:00:00Z,26.1914,-97.0507,1014.13,11111222 
TABS,ioos:station:wmo:42044:1,2017-10-06T06:30:00Z,26.1914,-97.0507,1014.01,11111222 
TABS,ioos:station:wmo:42044:1,2017-10-06T07:00:00Z,26.1914,-97.0507,1013.84,11111222 
TABS,ioos:station:wmo:42044:1,2017-10-06T07:30:00Z,26.1914,-97.0507,1013.66,11111222 
TABS,ioos:station:wmo:42044:1,2017-10-06T08:00:00Z,26.1914,-97.0507,1013.37,11111222 
TABS,ioos:station:wmo:42044:1,2017-10-06T08:30:00Z,26.1914,-97.0507,1013.21,11111222 
TABS,ioos:station:wmo:42044:1,2017-10-06T09:00:00Z,26.1914,-97.0507,1013.02,11111222 
TABS,ioos:station:wmo:42044:1,2017-10-06T09:30:00Z,26.1914,-97.0507,1012.9,11111222 
TABS,ioos:station:wmo:42044:1,2017-10-06T10:00:00Z,26.1914,-97.0507,1018.77,11111222 
TABS,ioos:station:wmo:42044:1,2017-10-06T10:30:00Z,26.1914,-97.0507,1020.81,11111222 
TABS,ioos:station:wmo:42044:1,2017-10-06T11:00:00Z,26.1914,-97.0507,1020.75,11111222 
TABS,ioos:station:wmo:42044:1,2017-10-06T11:30:00Z,26.1914,-97.0507,1017.76,11111222 
TABS,ioos:station:wmo:42044:1,2017-10-06T12:00:00Z,26.1914,-97.0507,1014.66,11111222 
TABS,ioos:station:wmo:42044:1,2017-10-06T12:30:00Z,26.1914,-97.0507,1013.19,11111222 
TABS,ioos:station:wmo:42044:1,2017-10-06T13:00:00Z,26.1914,-97.0507,1013.42,11111222 
TABS,ioos:station:wmo:42044:1,2017-10-06T13:30:00Z,26.1914,-97.0507,1013.5,11111222 
TABS,ioos:station:wmo:42044:1,2017-10-06T14:00:00Z,26.1914,-97.0507,1013.57,11111222 
TABS,ioos:station:wmo:42044:1,2017-10-06T14:30:00Z,26.1914,-97.0507,1013.75,11111222 
TABS,ioos:station:wmo:42044:1,2017-10-06T15:00:00Z,26.1914,-97.0507,1013.7,11111222 
TABS,ioos:station:wmo:42044:1,2017-10-06T15:30:00Z,26.1914,-97.0507,1013.76,11111222 
TABS,ioos:station:wmo:42044:1,2017-10-06T16:00:00Z,26.1914,-97.0507,1013.68,11111222 
TABS,ioos:station:wmo:42044:1,2017-10-06T16:30:00Z,26.1914,-97.0507,1013.27,11111222 
TABS,ioos:station:wmo:42044:1,2017-10-06T17:00:00Z,26.1914,-97.0507,1013.18,11111222 
TABS,ioos:station:wmo:42044:1,2017-10-06T17:30:00Z,26.1914,-97.0507,1012.77,11111222 
TABS,ioos:station:wmo:42044:1,2017-10-06T18:00:00Z,26.1914,-97.0507,1012.29,11111222 
TABS,ioos:station:wmo:42044:1,2017-10-06T18:30:00Z,26.1914,-97.0507,1011.83,11111222 